Total_Precipitation_Accumulation
1.62 1.51 1.47 1.65 1.74 2.04 2.30 2.45 2.34 2.12 1.84 1.58 1.55 1.53 1.61 1.65 1.73 1.84 2.30 2.83 3.38 4.25 4.72 4.68 4.55 4.46 4.42 4.34 4.17 4.05 3.83 3.55 3.56 3.84 4.39 4.60 4.26 3.73 3.37 3.10 2.87 2.59 2.64
1.41 1.44 1.36 1.45 1.63 1.98 2.41 2.55 2.29 2.14 1.94 1.81 1.78 1.70 1.67 1.65 1.69 1.67 1.91 2.23 2.36 2.83 3.58 4.26 4.63 4.68 4.71 4.61 4.15 3.97 3.75 3.47 3.41 3.56 3.58 3.64 3.64 3.33 3.06 3.00 2.76 2.55 2.74
1.21 1.31 1.38 1.41 1.54 1.90 2.37 2.66 2.52 2.30 2.03 1.96 1.92 1.84 1.74 1.75 1.70 1.62 1.75 1.99 1.96 2.10 2.64 3.43 4.26 4.65 4.60 4.54 4.17 3.94 3.57 3.17 3.02 3.11 3.18 3.08 3.20 3.20 3.05 2.98 2.79 2.62 2.64
1.25 1.34 1.45 1.42 1.48 1.80 2.23 2.60 2.72 2.73 2.50 2.32 2.17 2.02 1.90 2.04 1.89 1.75 1.80 1.97 2.12 1.98 2.10 2.58 3.31 4.13 4.47 4.52 4.04 3.73 3.53 3.14 2.86 2.78 2.87 2.73 2.91 3.13 3.14 3.00 2.91 2.93 2.88
1.33 1.43 1.64 1.67 1.67 1.91 2.13 2.25 2.48 2.67 2.74 2.55 2.21 2.11 1.99 2.11 2.23 2.13 2.18 2.26 2.29 2.21 2.09 2.13 2.50 3.00 3.75 4.20 4.01 3.72 3.58 3.29 3.04 2.78 2.83 2.68 2.65 2.91 3.08 2.91 2.94 3.07 3.09
1.55 1.51 1.68 1.73 1.79 2.07 2.19 2.32 2.61 2.72 2.80 2.81 2.40 2.19 2.10 2.09 2.15 2.36 2.49 2.49 2.48 2.28 2.24 2.11 2.32 2.46 3.08 3.72 3.82 3.67 3.41 3.34 3.34 3.17 3.19 3.06 2.78 2.81 2.93 2.84 2.92 3.00 3.09
1.64 1.68 1.75 1.79 1.84 1.98 2.06 2.21 2.67 2.83 2.84 2.74 2.83 2.76 2.57 2.28 2.17 2.25 2.39 2.60 2.70 2.52 2.45 2.47 2.40 2.37 2.51 2.90 3.14 3.26 3.23 3.49 3.65 3.53 3.39 3.23 2.97 2.97 3.04 2.89 2.94 2.94 2.96
1.62 1.55 1.78 1.94 1.91 2.07 2.13 2.30 2.68 3.02 2.87 2.76 3.15 3.58 3.31 2.97 2.55 2.25 2.29 2.35 2.59 2.63 2.50 2.37 2.25 2.24 2.33 2.46 2.47 2.65 2.91 3.43 3.92 3.75 3.37 3.26 3.09 2.95 3.03 2.96 2.91 2.85 2.82
1.91 1.84 1.94 2.11 2.07 2.14 2.25 2.30 2.45 3.03 3.29 3.10 3.05 3.63 3.52 3.30 3.21 2.62 2.18 2.07 2.35 2.58 2.61 2.46 2.32 2.33 2.36 2.49 2.44 2.40 2.55 2.91 3.59 3.67 3.48 3.51 3.35 3.05 2.83 2.72 2.71 2.83 2.89
2.18 2.03 2.07 2.18 2.22 2.28 2.25 2.09 2.28 2.84 3.43 3.54 3.30 3.03 2.87 2.80 2.96 2.93 2.36 1.99 2.03 2.25 2.50 2.41 2.38 2.45 2.49 2.58 2.63 2.44 2.31 2.39 2.92 3.55 3.81 3.74 3.56 3.29 2.96 2.75 2.67 2.74 2.77
2.22 2.09 2.03 2.20 2.29 2.34 2.30 2.34 2.49 2.81 3.16 3.50 3.51 3.27 2.96 2.68 2.22 2.41 2.50 2.28 1.96 1.88 1.97 2.12 2.28 2.38 2.43 2.41 2.56 2.45 2.19 2.03 2.31 2.98 3.59 3.75 3.62 3.48 3.31 3.18 3.16 3.13 2.99
2.07 2.05 2.07 2.09 2.10 2.18 2.25 2.39 2.62 2.77 2.96 3.19 3.29 2.99 2.86 2.79 2.53 2.33 2.18 2.27 2.24 1.94 1.75 1.72 1.85 2.08 2.19 2.27 2.15 2.23 2.06 1.98 2.03 2.19 2.53 3.02 3.26 3.41 3.49 3.52 3.40 3.27 3.25
1.85 1.89 1.99 1.99 1.89 1.91 2.05 2.19 2.38 2.40 2.53 2.75 2.87 2.75 2.58 2.41 2.36 2.41 2.35 2.23 2.10 1.83 1.67 1.48 1.57 1.74 1.78 1.99 2.17 2.14 1.88 1.86 1.81 1.79 1.81 2.01 2.37 2.76 3.14 3.53 3.61 3.51 3.48
1.63 1.59 1.64 1.72 1.75 1.76 1.82 1.97 2.09 2.05 2.10 2.29 2.35 2.42 2.33 2.23 2.22 2.23 2.27 2.41 2.29 2.06 1.69 1.35 1.39 1.57 1.55 1.66 2.00 2.06 1.67 1.61 1.47 1.43 1.48 1.60 1.78 2.09 2.50 2.86 3.14 3.29 3.34
1.42 1.35 1.40 1.53 1.63 1.65 1.67 1.83 1.93 1.86 1.91 2.01 2.13 2.28 2.22 2.15 2.12 2.15 2.24 2.35 2.43 2.33 2.02 1.54 1.36 1.34 1.38 1.46 1.84 1.72 1.59 1.60 1.46 1.35 1.28 1.33 1.45 1.59 1.79 2.07 2.29 2.46 2.53
1.38 1.35 1.36 1.37 1.41 1.44 1.50 1.71 1.88 1.93 1.91 1.93 1.97 2.08 2.19 2.17 2.17 2.16 2.25 2.29 2.30 2.33 2.19 1.75 1.47 1.33 1.43 1.36 1.62 1.39 1.49 1.72 1.52 1.32 1.22 1.20 1.25 1.37 1.50 1.69 1.73 1.69 1.68
1.20 1.16 1.13 1.18 1.29 1.29 1.29 1.48 1.57 1.61 1.76 1.83 1.77 1.80 1.94 2.04 2.16 2.17 2.18 2.20 2.26 2.27 2.15 1.89 1.54 1.40 1.54 1.57 1.62 1.44 1.38 1.42 1.36 1.34 1.25 1.16 1.13 1.21 1.27 1.42 1.52 1.38 1.29
1.08 1.10 1.11 1.05 1.18 1.31 1.32 1.35 1.36 1.36 1.52 1.63 1.66 1.70 1.72 1.74 1.84 1.96 2.08 2.05 2.13 2.18 2.19 2.07 1.77 1.58 1.61 1.71 1.88 1.83 1.70 1.57 1.50 1.61 1.56 1.39 1.27 1.27 1.32 1.39 1.49 1.39 1.17
0.98 1.06 1.20 1.16 1.12 1.19 1.26 1.26 1.24 1.26 1.30 1.37 1.42 1.51 1.53 1.63 1.75 1.74 1.80 1.88 1.96 2.02 2.18 2.15 2.03 1.92 1.81 1.77 1.84 1.83 1.88 1.99 1.87 1.81 1.85 1.68 1.52 1.44 1.41 1.44 1.49 1.46 1.29
0.99 1.00 1.00 1.08 1.12 1.15 1.20 1.20 1.18 1.15 1.15 1.16 1.28 1.37 1.46 1.53 1.63 1.66 1.66 1.79 1.92 2.02 2.08 2.07 2.00 1.93 1.91 1.90 1.90 1.89 1.99 2.12 2.19 2.00 1.92 1.80 1.78 1.72 1.60 1.55 1.51 1.50 1.45
0.80 0.85 0.84 0.86 0.93 1.04 1.08 1.06 1.06 1.11 1.15 1.16 1.26 1.30 1.35 1.40 1.45 1.53 1.51 1.66 1.80 1.98 2.07 2.11 1.98 1.87 1.82 1.85 1.84 1.84 1.95 2.21 2.26 2.23 2.15 1.97 1.81 1.65 1.62 1.64 1.62 1.60 1.57
0.68 0.70 0.71 0.78 0.80 0.84 1.04 1.07 1.02 1.04 1.11 1.13 1.17 1.21 1.32 1.40 1.37 1.34 1.32 1.38 1.50 1.58 1.77 1.90 1.94 1.82 1.72 1.72 1.84 1.96 1.97 2.15 2.31 2.19 2.05 2.11 1.98 1.86 1.70 1.61 1.72 1.72 1.62
0.73 0.71 0.72 0.76 0.71 0.71 0.89 0.90 1.01 1.13 1.12 1.07 1.03 1.15 1.24 1.29 1.37 1.36 1.28 1.27 1.24 1.27 1.37 1.55 1.66 1.63 1.59 1.63 1.76 1.90 2.00 2.09 2.04 2.09 2.04 2.13 2.05 1.92 1.69 1.65 1.76 1.62 1.58
0.75 0.80 0.81 0.82 0.75 0.69 0.78 0.81 0.96 1.01 1.00 0.97 1.00 1.08 1.18 1.27 1.34 1.38 1.32 1.36 1.31 1.17 1.14 1.21 1.38 1.47 1.48 1.64 1.82 2.02 2.17 2.18 2.07 2.03 1.99 2.06 1.91 1.74 1.57 1.55 1.70 1.58 1.48
0.71 0.77 0.88 0.89 0.78 0.72 0.77 0.80 0.92 1.00 1.05 1.00 0.99 1.04 1.19 1.23 1.42 1.52 1.38 1.41 1.39 1.19 1.11 1.19 1.23 1.32 1.45 1.61 1.81 2.04 2.16 2.20 2.19 2.07 1.84 1.76 1.65 1.67 1.62 1.51 1.53 1.55 1.42
0.79 0.79 0.79 0.77 0.70 0.69 0.76 0.78 0.86 0.88 1.01 1.07 1.09 1.09 1.32 1.37 1.46 1.46 1.36 1.48 1.55 1.39 1.13 1.09 1.14 1.29 1.40 1.55 1.82 1.98 2.24 2.28 2.11 2.04 1.81 1.67 1.67 1.77 1.90 1.68 1.46 1.36 1.29